Wetterdaten: Sonntag, 26.10.2014
Datum Zeit Temperatur Luftfeuchte Luftdruck Regen Wind Richtung Richtung Taupunkt Windchill Windben
26.10.2014 00:00 5,9 C 96 % 1024,8 hPa 0,0 l/m 0,3 km/h (0 Bft) W 270 5,3 C 5,7 C 1,8 km/h (1 Bft)
26.10.2014 00:05 5,9 C 96 % 1024,8 hPa 0,0 l/m 0,3 km/h (0 Bft) W 270 5,3 C 5,8 C 2,9 km/h (1 Bft)
26.10.2014 00:10 6,0 C 96 % 1024,8 hPa 0,0 l/m 0,2 km/h (0 Bft) W-NW 292 5,4 C 5,8 C 0,0 km/h (0 Bft)
26.10.2014 00:15 6,0 C 96 % 1024,8 hPa 0,0 l/m 0,2 km/h (0 Bft) SW 225 5,4 C 5,9 C 0,0 km/h (0 Bft)
26.10.2014 00:20 6,0 C 96 % 1024,7 hPa 0,0 l/m 0,2 km/h (0 Bft) W 270 5,4 C 5,9 C 1,6 km/h (1 Bft)
26.10.2014 00:25 6,1 C 96 % 1024,7 hPa 0,0 l/m 0,5 km/h (0 Bft) NW 315 5,5 C 5,9 C 4,0 km/h (1 Bft)
26.10.2014 00:30 6,1 C 96 % 1024,7 hPa 0,0 l/m 0,5 km/h (0 Bft) N-NW 337 5,5 C 5,9 C 0,0 km/h (0 Bft)
26.10.2014 00:35 6,1 C 96 % 1024,7 hPa 0,0 l/m 0,0 km/h (0 Bft) NW 315 5,5 C 5,9 C 0,0 km/h (0 Bft)
26.10.2014 00:40 6,1 C 96 % 1024,9 hPa 0,0 l/m 0,0 km/h (0 Bft) W-NW 292 5,5 C 5,9 C 0,0 km/h (0 Bft)
26.10.2014 00:45 6,0 C 96 % 1024,9 hPa 0,0 l/m 0,0 km/h (0 Bft) S 180 5,4 C 5,9 C 0,0 km/h (0 Bft)
26.10.2014 00:50 6,0 C 96 % 1024,9 hPa 0,0 l/m 0,0 km/h (0 Bft) W 270 5,4 C 5,9 C 0,0 km/h (0 Bft)
26.10.2014 00:55 6,0 C 96 % 1024,9 hPa 0,0 l/m 0,0 km/h (0 Bft) W-NW 292 5,4 C 5,9 C 0,0 km/h (0 Bft)
26.10.2014 01:00 6,0 C 96 % 1025,0 hPa 0,0 l/m 0,0 km/h (0 Bft) NW 315 5,4 C 5,9 C 0,0 km/h (0 Bft)
26.10.2014 01:05 6,0 C 96 % 1025,0 hPa 0,0 l/m 0,0 km/h (0 Bft) W 270 5,4 C 5,9 C 0,0 km/h (0 Bft)
26.10.2014 01:10 6,0 C 96 % 1025,0 hPa 0,0 l/m 0,0 km/h (0 Bft) W-NW 292 5,4 C 5,9 C 0,0 km/h (0 Bft)
26.10.2014 01:15 6,0 C 96 % 1025,0 hPa 0,0 l/m 0,2 km/h (0 Bft) W-NW 292 5,4 C 5,9 C 0,0 km/h (0 Bft)
26.10.2014 01:20 6,0 C 96 % 1025,1 hPa 0,0 l/m 0,2 km/h (0 Bft) W 270 5,4 C 5,9 C 0,0 km/h (0 Bft)
26.10.2014 01:25 5,9 C 97 % 1025,1 hPa 0,0 l/m 0,0 km/h (0 Bft) W 270 5,5 C 5,9 C 0,0 km/h (0 Bft)
26.10.2014 01:30 5,9 C 97 % 1025,1 hPa 0,0 l/m 0,0 km/h (0 Bft) W 270 5,5 C 5,9 C 0,0 km/h (0 Bft)
26.10.2014 01:35 5,9 C 97 % 1025,1 hPa 0,0 l/m 0,0 km/h (0 Bft) S-SO 157 5,5 C 5,8 C 0,0 km/h (0 Bft)
26.10.2014 01:40 6,0 C 96 % 1025,2 hPa 0,0 l/m 0,0 km/h (0 Bft) W-SW 247 5,4 C 5,8 C 0,0 km/h (0 Bft)
26.10.2014 01:45 6,0 C 96 % 1025,2 hPa 0,0 l/m 0,0 km/h (0 Bft) W-NW 292 5,4 C 5,9 C 0,0 km/h (0 Bft)
26.10.2014 01:50 6,0 C 96 % 1025,2 hPa 0,0 l/m 0,0 km/h (0 Bft) S-SO 157 5,4 C 5,8 C 0,0 km/h (0 Bft)
26.10.2014 01:55 6,0 C 96 % 1025,2 hPa 0,0 l/m 0,0 km/h (0 Bft) SO 135 5,4 C 5,9 C 0,0 km/h (0 Bft)
26.10.2014 01:58 6,0 C 96 % 1025,2 hPa 0,0 l/m 0,0 km/h (0 Bft) NW 315 5,4 C 5,9 C 0,0 km/h (0 Bft)
26.10.2014 02:00 6,0 C 96 % 1025,2 hPa 0,0 l/m 0,0 km/h (0 Bft) NW 315 5,4 C 5,9 C 0,0 km/h (0 Bft)
26.10.2014 02:05 5,9 C 97 % 1025,2 hPa 0,0 l/m 0,0 km/h (0 Bft) W 270 5,5 C 5,8 C 0,0 km/h (0 Bft)
26.10.2014 02:10 5,9 C 97 % 1025,2 hPa 0,0 l/m 0,0 km/h (0 Bft) W 270 5,5 C 5,8 C 0,0 km/h (0 Bft)
26.10.2014 02:15 5,9 C 97 % 1025,2 hPa 0,0 l/m 0,0 km/h (0 Bft) W-NW 292 5,5 C 5,8 C 0,0 km/h (0 Bft)
26.10.2014 02:20 5,9 C 97 % 1025,2 hPa 0,0 l/m 0,0 km/h (0 Bft) W 270 5,5 C 5,7 C 0,0 km/h (0 Bft)
26.10.2014 02:25 5,9 C 97 % 1025,2 hPa 0,0 l/m 0,0 km/h (0 Bft) W-NW 292 5,5 C 5,7 C 0,0 km/h (0 Bft)
26.10.2014 02:30 5,9 C 97 % 1025,2 hPa 0,0 l/m 0,0 km/h (0 Bft) NW 315 5,5 C 5,8 C 0,0 km/h (0 Bft)
26.10.2014 02:35 5,9 C 97 % 1025,2 hPa 0,0 l/m 0,0 km/h (0 Bft) NO 45 5,5 C 5,8 C 0,0 km/h (0 Bft)
26.10.2014 02:40 5,9 C 97 % 1025,3 hPa 0,0 l/m 0,0 km/h (0 Bft) N-NW 337 5,5 C 5,8 C 0,0 km/h (0 Bft)
26.10.2014 02:45 5,9 C 97 % 1025,3 hPa 0,0 l/m 0,0 km/h (0 Bft) NW 315 5,5 C 5,8 C 0,0 km/h (0 Bft)
26.10.2014 02:50 5,9 C 97 % 1025,3 hPa 0,0 l/m 0,0 km/h (0 Bft) NW 315 5,5 C 5,8 C 0,0 km/h (0 Bft)
26.10.2014 02:55 5,9 C 97 % 1025,3 hPa 0,0 l/m 0,0 km/h (0 Bft) W 270 5,5 C 5,8 C 0,0 km/h (0 Bft)
26.10.2014 02:00 5,9 C 97 % 1025,6 hPa 0,0 l/m 0,0 km/h (0 Bft) W-SW 247 5,5 C 5,8 C 0,0 km/h (0 Bft)
26.10.2014 02:05 5,9 C 97 % 1025,6 hPa 0,0 l/m 0,2 km/h (0 Bft) W-SW 247 5,5 C 5,8 C 0,0 km/h (0 Bft)
26.10.2014 02:10 5,9 C 97 % 1025,6 hPa 0,0 l/m 0,2 km/h (0 Bft) W-NW 292 5,5 C 5,8 C 0,0 km/h (0 Bft)
26.10.2014 02:15 5,9 C 97 % 1025,6 hPa 0,0 l/m 0,0 km/h (0 Bft) W-SW 247 5,5 C 5,7 C 0,0 km/h (0 Bft)
26.10.2014 02:20 5,9 C 97 % 1025,5 hPa 0,0 l/m 0,0 km/h (0 Bft) W-NW 292 5,5 C 5,7 C 0,0 km/h (0 Bft)
26.10.2014 02:25 5,9 C 97 % 1025,5 hPa 0,0 l/m 0,0 km/h (0 Bft) W-NW 292 5,5 C 5,7 C 0,0 km/h (0 Bft)
26.10.2014 02:30 5,8 C 97 % 1025,5 hPa 0,0 l/m 0,0 km/h (0 Bft) O-SO 112 5,4 C 5,7 C 0,0 km/h (0 Bft)
26.10.2014 02:35 5,9 C 97 % 1025,5 hPa 0,0 l/m 0,5 km/h (0 Bft) S-SO 157 5,5 C 5,7 C 3,7 km/h (1 Bft)
26.10.2014 02:40 6,0 C 96 % 1025,4 hPa 0,0 l/m 2,3 km/h (1 Bft) W 270 5,4 C 5,8 C 3,5 km/h (1 Bft)
26.10.2014 02:45 6,1 C 96 % 1025,4 hPa 0,0 l/m 2,4 km/h (1 Bft) N-NO 22 5,5 C 5,9 C 7,7 km/h (2 Bft)
26.10.2014 02:50 6,0 C 96 % 1025,4 hPa 0,0 l/m 0,8 km/h (0 Bft) N-NO 22 5,4 C 5,9 C 0,0 km/h (0 Bft)
26.10.2014 02:55 6,0 C 96 % 1025,4 hPa 0,0 l/m 0,5 km/h (0 Bft) W-NW 292 5,4 C 5,9 C 2,1 km/h (1 Bft)
26.10.2014 03:00 6,0 C 96 % 1025,4 hPa 0,0 l/m 0,6 km/h (0 Bft) S-SW 202 5,4 C 5,9 C 0,0 km/h (0 Bft)
26.10.2014 03:05 6,0 C 96 % 1025,4 hPa 0,0 l/m 0,5 km/h (0 Bft) NO 45 5,4 C 5,9 C 0,0 km/h (0 Bft)
26.10.2014 03:10 5,9 C 97 % 1025,4 hPa 0,0 l/m 0,0 km/h (0 Bft) O-SO 112 5,5 C 5,8 C 0,0 km/h (0 Bft)
26.10.2014 03:15 5,9 C 97 % 1025,4 hPa 0,0 l/m 0,2 km/h (0 Bft) N-NO 22 5,5 C 5,8 C 3,2 km/h (1 Bft)
26.10.2014 03:20 5,9 C 97 % 1025,4 hPa 0,0 l/m 0,3 km/h (0 Bft) O-SO 112 5,5 C 5,8 C 0,0 km/h (0 Bft)
26.10.2014 03:25 5,9 C 97 % 1025,4 hPa 0,0 l/m 0,3 km/h (0 Bft) W 270 5,5 C 5,8 C 0,0 km/h (0 Bft)
26.10.2014 03:30 5,9 C 97 % 1025,4 hPa 0,0 l/m 0,2 km/h (0 Bft) W-SW 247 5,5 C 5,8 C 0,0 km/h (0 Bft)
26.10.2014 03:35 6,0 C 96 % 1025,4 hPa 0,0 l/m 0,0 km/h (0 Bft) O-NO 67 5,4 C 5,8 C 0,0 km/h (0 Bft)
26.10.2014 03:40 5,9 C 97 % 1025,6 hPa 0,0 l/m 0,0 km/h (0 Bft) N-NW 337 5,5 C 5,8 C 0,0 km/h (0 Bft)
26.10.2014 03:45 5,7 C 97 % 1025,6 hPa 0,0 l/m 0,0 km/h (0 Bft) S-SW 202 5,3 C 5,6 C 0,0 km/h (0 Bft)
26.10.2014 03:50 5,7 C 97 % 1025,6 hPa 0,0 l/m 0,2 km/h (0 Bft) SO 135 5,3 C 5,5 C 1,9 km/h (1 Bft)
26.10.2014 03:55 5,5 C 97 % 1025,6 hPa 0,0 l/m 0,5 km/h (0 Bft) O-NO 67 5,1 C 5,4 C 0,0 km/h (0 Bft)
26.10.2014 04:00 5,4 C 97 % 1025,7 hPa 0,0 l/m 0,3 km/h (0 Bft) S 180 5,0 C 5,3 C 0,0 km/h (0 Bft)
26.10.2014 04:05 5,4 C 97 % 1025,7 hPa 0,0 l/m 0,0 km/h (0 Bft) NW 315 5,0 C 5,3 C 0,0 km/h (0 Bft)
26.10.2014 04:10 5,4 C 97 % 1025,7 hPa 0,0 l/m 0,0 km/h (0 Bft) S 180 5,0 C 5,2 C 0,0 km/h (0 Bft)
26.10.2014 04:15 5,3 C 97 % 1025,7 hPa 0,0 l/m 0,0 km/h (0 Bft) SW 225 4,9 C 5,2 C 0,0 km/h (0 Bft)
26.10.2014 04:20 5,4 C 97 % 1025,7 hPa 0,0 l/m 0,3 km/h (0 Bft) S 180 5,0 C 5,2 C 0,0 km/h (0 Bft)
26.10.2014 04:25 5,4 C 97 % 1025,7 hPa 0,0 l/m 0,3 km/h (0 Bft) S 180 5,0 C 5,3 C 0,0 km/h (0 Bft)
26.10.2014 04:30 5,4 C 97 % 1025,7 hPa 0,0 l/m 0,0 km/h (0 Bft) O-SO 112 5,0 C 5,3 C 0,0 km/h (0 Bft)
26.10.2014 04:35 5,7 C 97 % 1025,7 hPa 0,0 l/m 0,3 km/h (0 Bft) S 180 5,3 C 5,3 C 0,0 km/h (0 Bft)
26.10.2014 04:40 5,8 C 97 % 1025,7 hPa 0,0 l/m 0,3 km/h (0 Bft) N-NO 22 5,4 C 5,5 C 1,6 km/h (1 Bft)
26.10.2014 04:45 5,4 C 97 % 1025,7 hPa 0,0 l/m 0,2 km/h (0 Bft) NW 315 5,0 C 5,3 C 0,0 km/h (0 Bft)
26.10.2014 04:50 5,4 C 97 % 1025,7 hPa 0,0 l/m 0,2 km/h (0 Bft) NW 315 5,0 C 5,3 C 0,0 km/h (0 Bft)
26.10.2014 04:55 5,4 C 97 % 1025,7 hPa 0,0 l/m 0,0 km/h (0 Bft) N-NO 22 5,0 C 5,3 C 0,0 km/h (0 Bft)
26.10.2014 04:58 5,4 C 97 % 1025,8 hPa 0,0 l/m 0,0 km/h (0 Bft) W-SW 247 5,0 C 5,3 C 0,0 km/h (0 Bft)
26.10.2014 05:00 5,4 C 97 % 1025,8 hPa 0,0 l/m 0,0 km/h (0 Bft) W-SW 247 5,0 C 5,3 C 0,0 km/h (0 Bft)
26.10.2014 05:05 5,5 C 97 % 1025,8 hPa 0,0 l/m 0,3 km/h (0 Bft) S-SO 157 5,1 C 5,3 C 3,2 km/h (1 Bft)
26.10.2014 05:10 5,5 C 97 % 1025,8 hPa 0,0 l/m 0,6 km/h (0 Bft) S-SO 157 5,1 C 5,3 C 0,0 km/h (0 Bft)
26.10.2014 05:15 5,5 C 97 % 1025,8 hPa 0,0 l/m 0,6 km/h (0 Bft) S-SW 202 5,1 C 5,3 C 0,0 km/h (0 Bft)
26.10.2014 05:20 5,4 C 97 % 1025,7 hPa 0,0 l/m 0,0 km/h (0 Bft) SW 225 5,0 C 5,3 C 0,0 km/h (0 Bft)
26.10.2014 05:25 5,4 C 97 % 1025,7 hPa 0,0 l/m 0,0 km/h (0 Bft) SW 225 5,0 C 5,3 C 0,0 km/h (0 Bft)
26.10.2014 05:30 5,4 C 97 % 1025,7 hPa 0,0 l/m 0,0 km/h (0 Bft) SW 225 5,0 C 5,3 C 0,0 km/h (0 Bft)
26.10.2014 05:35 5,3 C 97 % 1025,7 hPa 0,0 l/m 0,0 km/h (0 Bft) N-NW 337 4,9 C 5,2 C 0,0 km/h (0 Bft)
26.10.2014 05:40 5,2 C 97 % 1025,9 hPa 0,0 l/m 0,0 km/h (0 Bft) S-SO 157 4,8 C 5,1 C 0,0 km/h (0 Bft)
26.10.2014 05:45 5,4 C 97 % 1025,9 hPa 0,0 l/m 0,6 km/h (0 Bft) S 180 5,0 C 5,1 C 4,2 km/h (1 Bft)
26.10.2014 05:50 5,4 C 97 % 1025,9 hPa 0,0 l/m 1,0 km/h (0 Bft) N-NO 22 5,0 C 5,3 C 2,1 km/h (1 Bft)
26.10.2014 05:55 5,3 C 97 % 1025,9 hPa 0,0 l/m 1,1 km/h (1 Bft) SO 135 4,9 C 5,2 C 2,1 km/h (1 Bft)
26.10.2014 06:00 5,3 C 97 % 1026,1 hPa 0,0 l/m 0,6 km/h (0 Bft) NO 45 4,9 C 5,2 C 0,0 km/h (0 Bft)
26.10.2014 06:05 5,3 C 97 % 1026,1 hPa 0,0 l/m 0,5 km/h (0 Bft) O-NO 67 4,9 C 5,2 C 0,0 km/h (0 Bft)
26.10.2014 06:10 5,2 C 97 % 1026,1 hPa 0,0 l/m 0,0 km/h (0 Bft) O-NO 67 4,8 C 5,1 C 0,0 km/h (0 Bft)
26.10.2014 06:15 5,2 C 97 % 1026,1 hPa 0,0 l/m 0,0 km/h (0 Bft) S-SO 157 4,8 C 5,0 C 0,0 km/h (0 Bft)
26.10.2014 06:20 5,2 C 97 % 1025,9 hPa 0,0 l/m 0,0 km/h (0 Bft) S 180 4,8 C 5,0 C 0,0 km/h (0 Bft)
26.10.2014 06:25 5,2 C 97 % 1025,9 hPa 0,0 l/m 0,0 km/h (0 Bft) S 180 4,8 C 5,0 C 0,0 km/h (0 Bft)
26.10.2014 06:30 5,2 C 97 % 1025,9 hPa 0,0 l/m 0,0 km/h (0 Bft) S 180 4,8 C 5,0 C 0,0 km/h (0 Bft)
26.10.2014 06:35 5,1 C 97 % 1025,9 hPa 0,0 l/m 0,0 km/h (0 Bft) W-NW 292 4,7 C 5,0 C 0,0 km/h (0 Bft)
26.10.2014 06:40 5,2 C 97 % 1026,0 hPa 0,0 l/m 0,0 km/h (0 Bft) O-SO 112 4,8 C 5,0 C 0,0 km/h (0 Bft)
26.10.2014 06:45 5,2 C 97 % 1026,0 hPa 0,0 l/m 0,0 km/h (0 Bft) SO 135 4,8 C 5,0 C 0,0 km/h (0 Bft)
26.10.2014 06:50 5,2 C 97 % 1026,0 hPa 0,0 l/m 0,0 km/h (0 Bft) SO 135 4,8 C 5,0 C 0,0 km/h (0 Bft)
26.10.2014 06:55 5,2 C 97 % 1026,0 hPa 0,0 l/m 0,0 km/h (0 Bft) S 180 4,8 C 5,0 C 0,0 km/h (0 Bft)
26.10.2014 07:00 5,3 C 97 % 1026,1 hPa 0,0 l/m 0,0 km/h (0 Bft) SO 135 4,9 C 5,0 C 0,0 km/h (0 Bft)
26.10.2014 07:05 5,2 C 97 % 1026,1 hPa 0,0 l/m 0,0 km/h (0 Bft) S-SO 157 4,8 C 5,0 C 0,0 km/h (0 Bft)
26.10.2014 07:10 5,2 C 97 % 1026,1 hPa 0,0 l/m 0,0 km/h (0 Bft) W-SW 247 4,8 C 5,1 C 0,0 km/h (0 Bft)
26.10.2014 07:15 5,3 C 97 % 1026,1 hPa 0,0 l/m 0,0 km/h (0 Bft) SO 135 4,9 C 5,1 C 0,0 km/h (0 Bft)
26.10.2014 07:20 5,3 C 97 % 1026,1 hPa 0,0 l/m 0,0 km/h (0 Bft) SO 135 4,9 C 5,1 C 0,0 km/h (0 Bft)
26.10.2014 07:25 5,3 C 97 % 1026,1 hPa 0,0 l/m 0,0 km/h (0 Bft) W-NW 292 4,9 C 5,1 C 0,0 km/h (0 Bft)
26.10.2014 07:30 5,4 C 97 % 1026,1 hPa 0,0 l/m 0,0 km/h (0 Bft) S 180 5,0 C 5,2 C 0,0 km/h (0 Bft)
26.10.2014 07:35 5,5 C 97 % 1026,1 hPa 0,0 l/m 0,0 km/h (0 Bft) S 180 5,1 C 5,3 C 0,0 km/h (0 Bft)
26.10.2014 07:40 5,6 C 97 % 1026,4 hPa 0,0 l/m 0,0 km/h (0 Bft) NW 315 5,2 C 5,3 C 0,0 km/h (0 Bft)
26.10.2014 07:45 5,6 C 97 % 1026,4 hPa 0,0 l/m 0,0 km/h (0 Bft) W 270 5,2 C 5,5 C 0,0 km/h (0 Bft)
26.10.2014 07:50 5,7 C 97 % 1026,4 hPa 0,0 l/m 0,0 km/h (0 Bft) S 180 5,3 C 5,5 C 0,0 km/h (0 Bft)
26.10.2014 07:55 5,8 C 97 % 1026,4 hPa 0,0 l/m 0,0 km/h (0 Bft) S-SO 157 5,4 C 5,6 C 0,0 km/h (0 Bft)
26.10.2014 07:58 5,9 C 97 % 1026,6 hPa 0,0 l/m 0,0 km/h (0 Bft) S 180 5,5 C 5,7 C 0,0 km/h (0 Bft)
26.10.2014 08:00 5,9 C 97 % 1026,6 hPa 0,0 l/m 0,0 km/h (0 Bft) S 180 5,5 C 5,7 C 0,0 km/h (0 Bft)
26.10.2014 08:05 6,1 C 96 % 1026,6 hPa 0,0 l/m 0,0 km/h (0 Bft) W 270 5,5 C 5,9 C 0,0 km/h (0 Bft)
26.10.2014 08:10 6,2 C 96 % 1026,6 hPa 0,0 l/m 0,0 km/h (0 Bft) W 270 5,6 C 5,9 C 0,0 km/h (0 Bft)
26.10.2014 08:15 6,2 C 96 % 1026,6 hPa 0,0 l/m 0,0 km/h (0 Bft) NW 315 5,6 C 6,1 C 0,0 km/h (0 Bft)
26.10.2014 08:20 6,3 C 96 % 1026,8 hPa 0,0 l/m 0,0 km/h (0 Bft) W-NW 292 5,7 C 6,2 C 0,0 km/h (0 Bft)
26.10.2014 08:25 6,4 C 96 % 1026,8 hPa 0,0 l/m 0,0 km/h (0 Bft) S-SO 157 5,8 C 6,2 C 0,0 km/h (0 Bft)
26.10.2014 08:30 6,5 C 96 % 1026,8 hPa 0,0 l/m 0,2 km/h (0 Bft) N-NO 22 5,9 C 6,3 C 2,1 km/h (1 Bft)
26.10.2014 08:35 6,6 C 96 % 1026,8 hPa 0,0 l/m 0,3 km/h (0 Bft) O-SO 112 6,0 C 6,5 C 0,0 km/h (0 Bft)
26.10.2014 08:40 6,8 C 96 % 1026,9 hPa 0,0 l/m 0,3 km/h (0 Bft) O-SO 112 6,2 C 6,6 C 0,0 km/h (0 Bft)
26.10.2014 08:45 6,9 C 96 % 1026,9 hPa 0,0 l/m 0,0 km/h (0 Bft) NW 315 6,3 C 6,8 C 0,0 km/h (0 Bft)
26.10.2014 08:50 7,0 C 96 % 1026,9 hPa 0,0 l/m 0,0 km/h (0 Bft) W-NW 292 6,4 C 7,0 C 0,0 km/h (0 Bft)
26.10.2014 08:55 7,1 C 96 % 1026,9 hPa 0,0 l/m 0,5 km/h (0 Bft) N 360 6,5 C 7,1 C 1,6 km/h (1 Bft)
26.10.2014 09:00 7,0 C 96 % 1027,0 hPa 0,0 l/m 1,0 km/h (0 Bft) N-NO 22 6,4 C 7,1 C 0,0 km/h (0 Bft)
26.10.2014 09:05 7,3 C 96 % 1027,0 hPa 0,0 l/m 0,6 km/h (0 Bft) N-NO 22 6,7 C 7,3 C 0,0 km/h (0 Bft)
26.10.2014 09:10 7,4 C 96 % 1027,0 hPa 0,0 l/m 0,0 km/h (0 Bft) O-SO 112 6,8 C 7,6 C 0,0 km/h (0 Bft)
26.10.2014 09:15 7,6 C 96 % 1027,0 hPa 0,0 l/m 0,0 km/h (0 Bft) O-SO 112 7,0 C 7,9 C 0,0 km/h (0 Bft)
26.10.2014 09:20 8,0 C 96 % 1027,0 hPa 0,0 l/m 0,0 km/h (0 Bft) N-NO 22 7,4 C 8,2 C 0,0 km/h (0 Bft)
26.10.2014 09:25 8,5 C 96 % 1027,0 hPa 0,0 l/m 0,0 km/h (0 Bft) N-NO 22 7,9 C 8,6 C 0,0 km/h (0 Bft)
26.10.2014 09:30 8,6 C 96 % 1027,0 hPa 0,0 l/m 0,0 km/h (0 Bft) NW 315 8,0 C 8,9 C 0,0 km/h (0 Bft)
26.10.2014 09:35 8,6 C 96 % 1027,0 hPa 0,0 l/m 0,0 km/h (0 Bft) N-NO 22 8,0 C 9,1 C 0,0 km/h (0 Bft)
26.10.2014 09:40 8,5 C 96 % 1027,1 hPa 0,0 l/m 0,0 km/h (0 Bft) O 90 7,9 C 9,3 C 0,0 km/h (0 Bft)
26.10.2014 09:45 8,8 C 96 % 1027,1 hPa 0,0 l/m 0,0 km/h (0 Bft) O-SO 112 8,2 C 9,6 C 0,0 km/h (0 Bft)
26.10.2014 09:50 8,7 C 96 % 1027,1 hPa 0,0 l/m 0,0 km/h (0 Bft) NO 45 8,1 C 9,9 C 0,0 km/h (0 Bft)
26.10.2014 09:55 8,9 C 96 % 1027,1 hPa 0,0 l/m 0,0 km/h (0 Bft) N 360 8,3 C 10,2 C 0,0 km/h (0 Bft)
26.10.2014 10:00 9,4 C 95 % 1027,3 hPa 0,0 l/m 0,6 km/h (0 Bft) N-NO 22 8,6 C 10,3 C 2,4 km/h (1 Bft)
26.10.2014 10:05 9,3 C 95 % 1027,3 hPa 0,0 l/m 0,8 km/h (0 Bft) SO 135 8,5 C 10,4 C 0,0 km/h (0 Bft)
26.10.2014 10:10 9,6 C 95 % 1027,3 hPa 0,0 l/m 0,3 km/h (0 Bft) O-NO 67 8,8 C 10,6 C 0,0 km/h (0 Bft)
26.10.2014 10:15 9,5 C 95 % 1027,3 hPa 0,0 l/m 0,3 km/h (0 Bft) NW 315 8,7 C 10,7 C 0,0 km/h (0 Bft)
26.10.2014 10:20 9,7 C 95 % 1027,3 hPa 0,0 l/m 0,8 km/h (0 Bft) W-NW 292 8,9 C 10,7 C 2,4 km/h (1 Bft)
26.10.2014 10:25 9,9 C 95 % 1027,3 hPa 0,0 l/m 1,3 km/h (1 Bft) NW 315 9,1 C 10,8 C 0,0 km/h (0 Bft)
26.10.2014 10:30 10,0 C 95 % 1027,3 hPa 0,0 l/m 0,8 km/h (0 Bft) N-NW 337 9,2 C 11,1 C 0,0 km/h (0 Bft)
26.10.2014 10:35 10,1 C 94 % 1027,3 hPa 0,0 l/m 1,1 km/h (1 Bft) W-NW 292 9,2 C 12,8 C 3,9 km/h (1 Bft)
26.10.2014 10:40 10,1 C 94 % 1027,4 hPa 0,0 l/m 1,4 km/h (1 Bft) N-NW 337 9,2 C 13,1 C 1,9 km/h (1 Bft)
26.10.2014 10:45 10,5 C 94 % 1027,4 hPa 0,0 l/m 0,8 km/h (0 Bft) O-NO 67 9,6 C 13,5 C 1,9 km/h (1 Bft)
26.10.2014 10:50 10,6 C 93 % 1027,4 hPa 0,0 l/m 0,5 km/h (0 Bft) SO 135 9,5 C 13,7 C 0,0 km/h (0 Bft)
26.10.2014 10:53 11,1 C 93 % 1027,4 hPa 0,0 l/m 0,6 km/h (0 Bft) N-NO 22 10,0 C 14,4 C 2,6 km/h (1 Bft)
26.10.2014 10:55 11,1 C 93 % 1027,4 hPa 0,0 l/m 0,6 km/h (0 Bft) N-NO 22 10,0 C 14,4 C 2,6 km/h (1 Bft)
26.10.2014 11:00 11,4 C 92 % 1027,7 hPa 0,0 l/m 0,8 km/h (0 Bft) N-NO 22 10,1 C 14,6 C 0,0 km/h (0 Bft)
26.10.2014 11:05 11,6 C 91 % 1027,7 hPa 0,0 l/m 1,4 km/h (1 Bft) N-NO 22 10,2 C 14,9 C 5,6 km/h (1 Bft)
26.10.2014 11:10 11,2 C 89 % 1027,7 hPa 0,0 l/m 2,1 km/h (1 Bft) N-NO 22 9,5 C 14,4 C 4,0 km/h (1 Bft)
26.10.2014 11:15 11,3 C 89 % 1027,7 hPa 0,0 l/m 3,5 km/h (1 Bft) NW 315 9,6 C 13,7 C 3,2 km/h (1 Bft)
26.10.2014 11:20 11,1 C 87 % 1027,9 hPa 0,0 l/m 3,4 km/h (1 Bft) NO 45 9,0 C 13,4 C 2,4 km/h (1 Bft)
26.10.2014 11:25 11,3 C 85 % 1027,9 hPa 0,0 l/m 2,4 km/h (1 Bft) O-NO 67 8,9 C 13,5 C 1,9 km/h (1 Bft)
26.10.2014 11:30 10,9 C 83 % 1027,9 hPa 0,0 l/m 2,3 km/h (1 Bft) N-NO 22 8,1 C 13,6 C 4,5 km/h (1 Bft)
26.10.2014 11:35 10,8 C 83 % 1027,9 hPa 0,0 l/m 2,7 km/h (1 Bft) N-NW 337 8,0 C 13,4 C 3,9 km/h (1 Bft)
26.10.2014 11:40 10,5 C 83 % 1027,8 hPa 0,0 l/m 3,9 km/h (1 Bft) NO 45 7,7 C 12,9 C 4,5 km/h (1 Bft)
26.10.2014 11:45 10,6 C 81 % 1027,8 hPa 0,0 l/m 4,3 km/h (1 Bft) NO 45 7,5 C 12,6 C 3,9 km/h (1 Bft)
26.10.2014 11:50 10,6 C 81 % 1027,8 hPa 0,0 l/m 4,3 km/h (1 Bft) NO 45 7,5 C 12,8 C 8,2 km/h (2 Bft)
26.10.2014 11:55 11,2 C 82 % 1027,8 hPa 0,0 l/m 3,5 km/h (1 Bft) O-NO 67 8,2 C 12,9 C 4,7 km/h (1 Bft)
26.10.2014 12:00 11,4 C 83 % 1027,8 hPa 0,0 l/m 2,3 km/h (1 Bft) O-SO 112 8,6 C 13,6 C 0,0 km/h (0 Bft)
26.10.2014 12:05 11,2 C 81 % 1027,8 hPa 0,0 l/m 2,3 km/h (1 Bft) NO 45 8,1 C 13,7 C 5,1 km/h (1 Bft)
26.10.2014 12:10 11,1 C 82 % 1027,8 hPa 0,0 l/m 3,1 km/h (1 Bft) O-SO 112 8,1 C 13,4 C 2,7 km/h (1 Bft)
26.10.2014 12:15 11,3 C 80 % 1027,8 hPa 0,0 l/m 3,7 km/h (1 Bft) NO 45 8,0 C 13,2 C 2,3 km/h (1 Bft)
26.10.2014 12:20 11,2 C 79 % 1028,1 hPa 0,0 l/m 3,4 km/h (1 Bft) O-SO 112 7,7 C 13,3 C 5,5 km/h (1 Bft)
26.10.2014 12:25 11,0 C 79 % 1028,1 hPa 0,0 l/m 4,0 km/h (1 Bft) S-SW 202 7,5 C 13,3 C 9,5 km/h (2 Bft)
26.10.2014 12:30 10,8 C 79 % 1028,1 hPa 0,0 l/m 4,7 km/h (1 Bft) N-NO 22 7,3 C 13,5 C 5,8 km/h (2 Bft)
26.10.2014 12:35 11,1 C 81 % 1028,1 hPa 0,0 l/m 4,2 km/h (1 Bft) O-SO 112 8,0 C 14,5 C 2,1 km/h (1 Bft)
26.10.2014 12:40 11,1 C 80 % 1027,8 hPa 0,0 l/m 4,0 km/h (1 Bft) W-SW 247 7,8 C 15,1 C 3,9 km/h (1 Bft)
26.10.2014 12:45 11,0 C 80 % 1027,8 hPa 0,0 l/m 3,1 km/h (1 Bft) NO 45 7,7 C 15,4 C 3,4 km/h (1 Bft)
26.10.2014 12:50 10,8 C 83 % 1027,8 hPa 0,0 l/m 3,2 km/h (1 Bft) S-SO 157 8,0 C 15,1 C 5,5 km/h (1 Bft)
26.10.2014 12:55 11,5 C 81 % 1027,8 hPa 0,0 l/m 3,2 km/h (1 Bft) O-NO 67 8,4 C 15,7 C 5,0 km/h (1 Bft)
26.10.2014 13:00 11,7 C 82 % 1027,7 hPa 0,0 l/m 3,4 km/h (1 Bft) O-NO 67 8,7 C 16,1 C 3,5 km/h (1 Bft)
26.10.2014 13:05 11,6 C 81 % 1027,7 hPa 0,0 l/m 3,1 km/h (1 Bft) O-SO 112 8,5 C 15,8 C 4,5 km/h (1 Bft)
26.10.2014 13:10 11,2 C 81 % 1027,7 hPa 0,0 l/m 2,6 km/h (1 Bft) O-NO 67 8,1 C 16,1 C 0,0 km/h (0 Bft)
26.10.2014 13:15 11,4 C 83 % 1027,7 hPa 0,0 l/m 2,3 km/h (1 Bft) O-NO 67 8,6 C 16,8 C 3,1 km/h (1 Bft)
26.10.2014 13:20 11,8 C 82 % 1027,7 hPa 0,0 l/m 2,3 km/h (1 Bft) O-NO 67 8,8 C 17,0 C 6,1 km/h (2 Bft)
26.10.2014 13:25 12,4 C 80 % 1027,7 hPa 0,0 l/m 3,2 km/h (1 Bft) O-NO 67 9,0 C 17,1 C 6,1 km/h (2 Bft)
26.10.2014 13:30 12,5 C 79 % 1027,7 hPa 0,0 l/m 2,9 km/h (1 Bft) O-NO 67 9,0 C 17,2 C 0,0 km/h (0 Bft)
26.10.2014 13:35 13,1 C 78 % 1027,7 hPa 0,0 l/m 1,9 km/h (1 Bft) O-NO 67 9,4 C 17,5 C 1,6 km/h (1 Bft)
26.10.2014 13:40 13,5 C 77 % 1027,8 hPa 0,0 l/m 1,8 km/h (1 Bft) O-NO 67 9,5 C 18,0 C 8,2 km/h (2 Bft)
26.10.2014 13:45 14,0 C 75 % 1027,8 hPa 0,0 l/m 2,6 km/h (1 Bft) O-SO 112 9,6 C 17,7 C 3,4 km/h (1 Bft)
26.10.2014 13:50 13,8 C 69 % 1027,8 hPa 0,0 l/m 3,2 km/h (1 Bft) N-NO 22 8,2 C 17,7 C 3,2 km/h (1 Bft)
26.10.2014 13:53 14,1 C 70 % 1027,8 hPa 0,0 l/m 3,5 km/h (1 Bft) O-SO 112 8,7 C 17,5 C 11,1 km/h (2 Bft)
26.10.2014 13:55 14,1 C 70 % 1027,8 hPa 0,0 l/m 3,5 km/h (1 Bft) O-SO 112 8,7 C 17,5 C 7,1 km/h (2 Bft)
26.10.2014 14:00 14,3 C 65 % 1027,6 hPa 0,0 l/m 3,9 km/h (1 Bft) O-NO 67 7,8 C 17,3 C 5,0 km/h (1 Bft)
26.10.2014 14:05 14,4 C 68 % 1027,6 hPa 0,0 l/m 3,1 km/h (1 Bft) SO 135 8,6 C 17,3 C 0,0 km/h (0 Bft)
26.10.2014 14:10 14,2 C 65 % 1027,6 hPa 0,0 l/m 2,4 km/h (1 Bft) SO 135 7,7 C 17,7 C 7,6 km/h (2 Bft)
26.10.2014 14:15 14,6 C 63 % 1027,6 hPa 0,0 l/m 2,4 km/h (1 Bft) NO 45 7,6 C 17,9 C 6,4 km/h (2 Bft)
26.10.2014 14:20 14,4 C 60 % 1027,4 hPa 0,0 l/m 3,5 km/h (1 Bft) O-SO 112 6,7 C 17,7 C 5,8 km/h (2 Bft)
26.10.2014 14:25 14,6 C 66 % 1027,4 hPa 0,0 l/m 3,5 km/h (1 Bft) O-NO 67 8,3 C 17,6 C 7,2 km/h (2 Bft)
26.10.2014 14:30 14,3 C 60 % 1027,4 hPa 0,0 l/m 3,7 km/h (1 Bft) NO 45 6,6 C 17,6 C 7,7 km/h (2 Bft)
26.10.2014 14:35 14,2 C 61 % 1027,4 hPa 0,0 l/m 4,3 km/h (1 Bft) O-SO 112 6,8 C 17,3 C 8,0 km/h (2 Bft)
26.10.2014 14:40 14,3 C 59 % 1027,4 hPa 0,0 l/m 4,0 km/h (1 Bft) O 90 6,4 C 16,9 C 4,7 km/h (1 Bft)
26.10.2014 14:45 14,2 C 59 % 1027,4 hPa 0,0 l/m 3,7 km/h (1 Bft) NO 45 6,3 C 15,0 C 6,8 km/h (2 Bft)
26.10.2014 14:50 14,3 C 60 % 1027,4 hPa 0,0 l/m 3,9 km/h (1 Bft) S-SO 157 6,6 C 14,2 C 2,3 km/h (1 Bft)
26.10.2014 14:55 14,2 C 58 % 1027,4 hPa 0,0 l/m 2,9 km/h (1 Bft) O 90 6,1 C 13,9 C 5,3 km/h (1 Bft)
26.10.2014 15:00 14,2 C 60 % 1026,9 hPa 0,0 l/m 2,6 km/h (1 Bft) S-SO 157 6,5 C 13,7 C 6,4 km/h (2 Bft)
26.10.2014 15:05 14,0 C 60 % 1026,9 hPa 0,0 l/m 3,5 km/h (1 Bft) O-SO 112 6,4 C 13,3 C 0,0 km/h (0 Bft)
26.10.2014 15:10 13,8 C 60 % 1026,9 hPa 0,0 l/m 2,6 km/h (1 Bft) O-NO 67 6,2 C 13,3 C 6,9 km/h (2 Bft)
26.10.2014 15:15 13,2 C 62 % 1026,9 hPa 0,0 l/m 2,1 km/h (1 Bft) S-SO 157 6,1 C 13,6 C 1,9 km/h (1 Bft)
26.10.2014 15:20 13,0 C 63 % 1026,7 hPa 0,0 l/m 2,7 km/h (1 Bft) NO 45 6,1 C 13,6 C 2,6 km/h (1 Bft)
26.10.2014 15:25 12,9 C 63 % 1026,7 hPa 0,0 l/m 2,9 km/h (1 Bft) O-SO 112 6,0 C 13,4 C 0,0 km/h (0 Bft)
26.10.2014 15:30 12,7 C 62 % 1026,7 hPa 0,0 l/m 2,4 km/h (1 Bft) O-NO 67 5,6 C 13,3 C 6,0 km/h (2 Bft)
26.10.2014 15:35 12,0 C 64 % 1026,7 hPa 0,0 l/m 1,1 km/h (1 Bft) O-NO 67 5,4 C 13,3 C 4,8 km/h (1 Bft)
26.10.2014 15:40 11,5 C 66 % 1026,4 hPa 0,0 l/m 1,3 km/h (1 Bft) SO 135 5,4 C 12,9 C 2,4 km/h (1 Bft)
26.10.2014 15:45 10,9 C 69 % 1026,4 hPa 0,0 l/m 1,0 km/h (0 Bft) O-NO 67 5,4 C 11,9 C 3,1 km/h (1 Bft)
26.10.2014 15:50 10,5 C 71 % 1026,4 hPa 0,0 l/m 1,4 km/h (1 Bft) SO 135 5,5 C 11,5 C 3,5 km/h (1 Bft)
26.10.2014 15:55 10,3 C 74 % 1026,4 hPa 0,0 l/m 1,8 km/h (1 Bft) SO 135 5,9 C 11,0 C 3,2 km/h (1 Bft)
26.10.2014 16:00 10,2 C 75 % 1026,2 hPa 0,0 l/m 1,9 km/h (1 Bft) NW 315 6,0 C 10,8 C 0,0 km/h (0 Bft)
26.10.2014 16:05 10,2 C 77 % 1026,2 hPa 0,0 l/m 1,9 km/h (1 Bft) O 90 6,4 C 10,5 C 2,6 km/h (1 Bft)
26.10.2014 16:10 10,0 C 77 % 1026,2 hPa 0,0 l/m 1,8 km/h (1 Bft) SO 135 6,2 C 10,3 C 4,2 km/h (1 Bft)
26.10.2014 16:15 9,6 C 79 % 1026,2 hPa 0,0 l/m 1,3 km/h (1 Bft) SO 135 6,1 C 10,3 C 0,0 km/h (0 Bft)
26.10.2014 16:20 9,6 C 79 % 1026,1 hPa 0,0 l/m 1,3 km/h (1 Bft) SO 135 6,1 C 10,5 C 3,7 km/h (1 Bft)
26.10.2014 16:25 9,3 C 79 % 1026,1 hPa 0,0 l/m 1,4 km/h (1 Bft) S-SO 157 5,8 C 10,4 C 3,1 km/h (1 Bft)
26.10.2014 16:30 9,5 C 80 % 1026,1 hPa 0,0 l/m 1,1 km/h (1 Bft) O-SO 112 6,2 C 10,0 C 2,6 km/h (1 Bft)
26.10.2014 16:35 9,3 C 80 % 1026,1 hPa 0,0 l/m 1,0 km/h (0 Bft) SO 135 6,0 C 9,5 C 2,3 km/h (1 Bft)
26.10.2014 16:40 9,5 C 81 % 1026,2 hPa 0,0 l/m 1,0 km/h (0 Bft) SO 135 6,4 C 9,1 C 2,4 km/h (1 Bft)
26.10.2014 16:45 9,1 C 81 % 1026,2 hPa 0,0 l/m 0,8 km/h (0 Bft) SO 135 6,0 C 8,8 C 0,0 km/h (0 Bft)
26.10.2014 16:50 9,1 C 81 % 1026,2 hPa 0,0 l/m 0,5 km/h (0 Bft) SO 135 6,0 C 8,6 C 1,9 km/h (1 Bft)
26.10.2014 16:53 8,9 C 82 % 1026,2 hPa 0,0 l/m 0,6 km/h (0 Bft) S-SO 157 6,0 C 8,2 C 0,0 km/h (0 Bft)
26.10.2014 16:55 8,9 C 82 % 1026,2 hPa 0,0 l/m 0,6 km/h (0 Bft) S-SO 157 6,0 C 8,2 C 0,0 km/h (0 Bft)
26.10.2014 17:00 8,8 C 82 % 1026,1 hPa 0,0 l/m 0,6 km/h (0 Bft) S-SO 157 5,9 C 8,0 C 1,6 km/h (1 Bft)
26.10.2014 17:05 8,6 C 83 % 1026,1 hPa 0,0 l/m 0,3 km/h (0 Bft) S 180 5,9 C 7,7 C 0,0 km/h (0 Bft)
26.10.2014 17:10 8,5 C 83 % 1026,1 hPa 0,0 l/m 0,3 km/h (0 Bft) S-SO 157 5,8 C 7,5 C 2,3 km/h (1 Bft)
26.10.2014 17:15 8,1 C 83 % 1026,1 hPa 0,0 l/m 0,3 km/h (0 Bft) S 180 5,4 C 7,2 C 0,0 km/h (0 Bft)
26.10.2014 17:20 8,0 C 83 % 1026,2 hPa 0,0 l/m 0,3 km/h (0 Bft) S-SO 157 5,3 C 7,1 C 1,6 km/h (1 Bft)
26.10.2014 17:25 7,8 C 84 % 1026,2 hPa 0,0 l/m 0,2 km/h (0 Bft) SO 135 5,3 C 6,8 C 0,0 km/h (0 Bft)
26.10.2014 17:30 7,6 C 84 % 1026,2 hPa 0,0 l/m 0,2 km/h (0 Bft) SO 135 5,1 C 6,5 C 0,0 km/h (0 Bft)
26.10.2014 17:35 7,0 C 84 % 1026,2 hPa 0,0 l/m 0,0 km/h (0 Bft) SO 135 4,5 C 6,2 C 0,0 km/h (0 Bft)
26.10.2014 17:40 6,4 C 85 % 1026,4 hPa 0,0 l/m 0,0 km/h (0 Bft) SO 135 4,1 C 6,1 C 0,0 km/h (0 Bft)
26.10.2014 17:45 6,9 C 86 % 1026,4 hPa 0,0 l/m 0,3 km/h (0 Bft) S-SO 157 4,7 C 6,1 C 1,8 km/h (1 Bft)
26.10.2014 17:50 7,0 C 86 % 1026,4 hPa 0,0 l/m 0,3 km/h (0 Bft) S 180 4,8 C 6,0 C 0,0 km/h (0 Bft)
26.10.2014 17:55 6,0 C 86 % 1026,4 hPa 0,0 l/m 0,0 km/h (0 Bft) SO 135 3,8 C 5,8 C 0,0 km/h (0 Bft)
26.10.2014 18:00 6,1 C 86 % 1026,6 hPa 0,0 l/m 0,0 km/h (0 Bft) S 180 3,9 C 5,6 C 0,0 km/h (0 Bft)
26.10.2014 18:05 5,4 C 87 % 1026,6 hPa 0,0 l/m 0,0 km/h (0 Bft) S 180 3,4 C 5,4 C 0,0 km/h (0 Bft)
26.10.2014 18:10 5,1 C 87 % 1026,6 hPa 0,0 l/m 0,0 km/h (0 Bft) S 180 3,1 C 5,1 C 0,0 km/h (0 Bft)
26.10.2014 18:15 5,6 C 88 % 1026,6 hPa 0,0 l/m 0,0 km/h (0 Bft) S-SO 157 3,8 C 4,7 C 0,0 km/h (0 Bft)
26.10.2014 18:20 5,7 C 88 % 1026,7 hPa 0,0 l/m 0,0 km/h (0 Bft) S-SO 157 3,9 C 4,7 C 0,0 km/h (0 Bft)
26.10.2014 18:25 5,9 C 89 % 1026,7 hPa 0,0 l/m 0,0 km/h (0 Bft) SO 135 4,2 C 4,9 C 0,0 km/h (0 Bft)
26.10.2014 18:30 5,9 C 89 % 1026,7 hPa 0,0 l/m 0,0 km/h (0 Bft) S-SO 157 4,2 C 4,9 C 0,0 km/h (0 Bft)
26.10.2014 18:35 4,7 C 89 % 1026,7 hPa 0,0 l/m 0,0 km/h (0 Bft) SW 225 3,0 C 4,7 C 0,0 km/h (0 Bft)
26.10.2014 18:40 4,4 C 89 % 1026,7 hPa 0,0 l/m 0,0 km/h (0 Bft) SW 225 2,7 C 4,7 C 0,0 km/h (0 Bft)
26.10.2014 18:45 4,0 C 89 % 1026,7 hPa 0,0 l/m 0,0 km/h (0 Bft) S-SO 157 2,4 C 4,0 C 0,0 km/h (0 Bft)
26.10.2014 18:50 4,1 C 89 % 1026,7 hPa 0,0 l/m 0,0 km/h (0 Bft) S-SO 157 2,5 C 3,8 C 0,0 km/h (0 Bft)
26.10.2014 18:55 4,1 C 89 % 1026,7 hPa 0,0 l/m 0,0 km/h (0 Bft) S 180 2,5 C 3,5 C 0,0 km/h (0 Bft)
26.10.2014 19:00 3,9 C 89 % 1027,2 hPa 0,0 l/m 0,0 km/h (0 Bft) SO 135 2,3 C 3,4 C 0,0 km/h (0 Bft)
26.10.2014 19:05 4,3 C 89 % 1027,2 hPa 0,0 l/m 0,0 km/h (0 Bft) S-SO 157 2,7 C 3,3 C 0,0 km/h (0 Bft)
26.10.2014 19:10 5,2 C 90 % 1027,2 hPa 0,0 l/m 0,2 km/h (0 Bft) S-SO 157 3,7 C 3,4 C 0,0 km/h (0 Bft)
26.10.2014 19:15 3,9 C 90 % 1027,2 hPa 0,0 l/m 0,2 km/h (0 Bft) S-SO 157 2,4 C 3,3 C 0,0 km/h (0 Bft)
26.10.2014 19:20 3,6 C 90 % 1027,6 hPa 0,0 l/m 0,0 km/h (0 Bft) S 180 2,1 C 3,2 C 0,0 km/h (0 Bft)
26.10.2014 19:25 4,2 C 91 % 1027,6 hPa 0,0 l/m 0,0 km/h (0 Bft) S-SO 157 2,9 C 3,3 C 0,0 km/h (0 Bft)
26.10.2014 19:30 3,5 C 90 % 1027,6 hPa 0,0 l/m 0,0 km/h (0 Bft) S-SO 157 2,0 C 3,2 C 0,0 km/h (0 Bft)
26.10.2014 19:35 3,5 C 90 % 1027,6 hPa 0,0 l/m 0,0 km/h (0 Bft) S-SO 157 2,0 C 3,0 C 0,0 km/h (0 Bft)
26.10.2014 19:40 3,4 C 90 % 1028,1 hPa 0,0 l/m 0,2 km/h (0 Bft) S-SO 157 1,9 C 2,9 C 1,9 km/h (1 Bft)
26.10.2014 19:45 3,4 C 91 % 1028,1 hPa 0,0 l/m 0,2 km/h (0 Bft) S-SO 157 2,1 C 3,0 C 0,0 km/h (0 Bft)
26.10.2014 19:50 3,4 C 91 % 1028,1 hPa 0,0 l/m 0,2 km/h (0 Bft) SW 225 2,1 C 3,0 C 0,0 km/h (0 Bft)
26.10.2014 19:53 3,4 C 91 % 1028,1 hPa 0,0 l/m 0,0 km/h (0 Bft) S-SO 157 2,1 C 3,1 C 0,0 km/h (0 Bft)
26.10.2014 19:55 3,4 C 91 % 1028,1 hPa 0,0 l/m 0,0 km/h (0 Bft) S-SO 157 2,1 C 3,1 C 0,0 km/h (0 Bft)
26.10.2014 20:00 3,9 C 91 % 1028,1 hPa 0,0 l/m 0,2 km/h (0 Bft) S 180 2,6 C 3,3 C 0,0 km/h (0 Bft)
26.10.2014 20:05 4,6 C 92 % 1028,1 hPa 0,0 l/m 0,2 km/h (0 Bft) S-SW 202 3,4 C 3,9 C 0,0 km/h (0 Bft)
26.10.2014 20:10 4,2 C 92 % 1028,1 hPa 0,0 l/m 0,0 km/h (0 Bft) S-SW 202 3,0 C 4,0 C 0,0 km/h (0 Bft)
26.10.2014 20:15 4,2 C 92 % 1028,1 hPa 0,0 l/m 0,0 km/h (0 Bft) S 180 3,0 C 4,0 C 0,0 km/h (0 Bft)
26.10.2014 20:20 4,3 C 92 % 1028,1 hPa 0,0 l/m 0,0 km/h (0 Bft) S-SW 202 3,1 C 4,1 C 0,0 km/h (0 Bft)
26.10.2014 20:25 4,4 C 92 % 1028,1 hPa 0,0 l/m 0,0 km/h (0 Bft) S-SO 157 3,2 C 4,2 C 0,0 km/h (0 Bft)
26.10.2014 20:30 4,5 C 92 % 1028,1 hPa 0,0 l/m 0,2 km/h (0 Bft) S 180 3,3 C 4,3 C 2,3 km/h (1 Bft)
26.10.2014 20:35 5,2 C 92 % 1028,1 hPa 0,0 l/m 0,5 km/h (0 Bft) S 180 4,0 C 5,0 C 3,4 km/h (1 Bft)
26.10.2014 20:40 5,5 C 92 % 1027,8 hPa 0,0 l/m 0,8 km/h (0 Bft) S-SO 157 4,3 C 5,3 C 1,8 km/h (1 Bft)
26.10.2014 20:45 5,7 C 93 % 1027,8 hPa 0,0 l/m 0,8 km/h (0 Bft) S 180 4,7 C 5,5 C 0,0 km/h (0 Bft)
26.10.2014 20:50 5,7 C 93 % 1027,8 hPa 0,0 l/m 0,5 km/h (0 Bft) S-SW 202 4,7 C 5,6 C 0,0 km/h (0 Bft)
26.10.2014 20:55 5,6 C 93 % 1027,8 hPa 0,0 l/m 0,0 km/h (0 Bft) S 180 4,6 C 5,6 C 0,0 km/h (0 Bft)
26.10.2014 21:00 5,5 C 93 % 1027,8 hPa 0,0 l/m 0,0 km/h (0 Bft) SO 135 4,5 C 5,5 C 0,0 km/h (0 Bft)
26.10.2014 21:05 4,9 C 93 % 1027,8 hPa 0,0 l/m 0,2 km/h (0 Bft) O-NO 67 3,9 C 5,1 C 1,8 km/h (1 Bft)
26.10.2014 21:10 4,6 C 92 % 1027,8 hPa 0,0 l/m 0,3 km/h (0 Bft) SO 135 3,4 C 4,7 C 0,0 km/h (0 Bft)
26.10.2014 21:15 4,1 C 92 % 1027,8 hPa 0,0 l/m 0,6 km/h (0 Bft) S-SO 157 2,9 C 4,1 C 0,0 km/h (0 Bft)
26.10.2014 21:20 4,2 C 92 % 1027,6 hPa 0,0 l/m 0,6 km/h (0 Bft) S-SO 157 3,0 C 4,0 C 2,3 km/h (1 Bft)
26.10.2014 21:25 4,4 C 92 % 1027,6 hPa 0,0 l/m 0,5 km/h (0 Bft) S-SO 157 3,2 C 4,1 C 0,0 km/h (0 Bft)
26.10.2014 21:30 4,3 C 92 % 1027,6 hPa 0,0 l/m 0,3 km/h (0 Bft) SO 135 3,1 C 4,0 C 0,0 km/h (0 Bft)
26.10.2014 21:35 4,2 C 92 % 1027,6 hPa 0,0 l/m 0,0 km/h (0 Bft) S 180 3,0 C 3,8 C 0,0 km/h (0 Bft)
26.10.2014 21:40 4,2 C 92 % 1027,4 hPa 0,0 l/m 0,0 km/h (0 Bft) W-SW 247 3,0 C 3,8 C 0,0 km/h (0 Bft)
26.10.2014 21:45 4,2 C 92 % 1027,4 hPa 0,0 l/m 0,0 km/h (0 Bft) SW 225 3,0 C 4,0 C 0,0 km/h (0 Bft)
26.10.2014 21:50 5,1 C 92 % 1027,4 hPa 0,0 l/m 0,8 km/h (0 Bft) S-SW 202 3,9 C 4,3 C 2,9 km/h (1 Bft)
26.10.2014 21:55 5,1 C 93 % 1027,4 hPa 0,0 l/m 2,7 km/h (1 Bft) SW 225 4,1 C 4,9 C 3,7 km/h (1 Bft)
26.10.2014 22:00 4,9 C 93 % 1027,4 hPa 0,0 l/m 2,3 km/h (1 Bft) S-SO 157 3,9 C 4,9 C 0,0 km/h (0 Bft)
26.10.2014 22:05 4,5 C 93 % 1027,4 hPa 0,0 l/m 0,5 km/h (0 Bft) NO 45 3,5 C 4,7 C 0,0 km/h (0 Bft)
26.10.2014 22:10 4,4 C 93 % 1027,4 hPa 0,0 l/m 0,0 km/h (0 Bft) NO 45 3,4 C 4,4 C 0,0 km/h (0 Bft)
26.10.2014 22:15 4,4 C 93 % 1027,4 hPa 0,0 l/m 0,0 km/h (0 Bft) NW 315 3,4 C 4,2 C 0,0 km/h (0 Bft)
26.10.2014 22:20 4,5 C 93 % 1027,3 hPa 0,0 l/m 0,0 km/h (0 Bft) NW 315 3,5 C 4,2 C 0,0 km/h (0 Bft)
26.10.2014 22:25 4,6 C 93 % 1027,3 hPa 0,0 l/m 0,0 km/h (0 Bft) NW 315 3,6 C 4,2 C 0,0 km/h (0 Bft)
26.10.2014 22:30 4,8 C 93 % 1027,3 hPa 0,0 l/m 0,0 km/h (0 Bft) S 180 3,8 C 4,3 C 0,0 km/h (0 Bft)
26.10.2014 22:35 4,9 C 93 % 1027,3 hPa 0,0 l/m 0,0 km/h (0 Bft) W 270 3,9 C 4,5 C 0,0 km/h (0 Bft)
26.10.2014 22:40 4,9 C 93 % 1027,1 hPa 0,0 l/m 0,0 km/h (0 Bft) NW 315 3,9 C 4,6 C 0,0 km/h (0 Bft)
26.10.2014 22:45 4,9 C 93 % 1027,1 hPa 0,0 l/m 0,0 km/h (0 Bft) N-NW 337 3,9 C 4,6 C 0,0 km/h (0 Bft)
26.10.2014 22:50 4,9 C 93 % 1027,1 hPa 0,0 l/m 0,0 km/h (0 Bft) N-NW 337 3,9 C 4,6 C 0,0 km/h (0 Bft)
26.10.2014 22:55 4,8 C 93 % 1027,1 hPa 0,0 l/m 0,0 km/h (0 Bft) NW 315 3,8 C 4,5 C 0,0 km/h (0 Bft)
26.10.2014 23:00 4,8 C 93 % 1026,9 hPa 0,0 l/m 0,0 km/h (0 Bft) NW 315 3,8 C 4,5 C 0,0 km/h (0 Bft)
26.10.2014 23:05 5,5 C 93 % 1026,9 hPa 0,0 l/m 0,5 km/h (0 Bft) O-SO 112 4,5 C 4,9 C 2,3 km/h (1 Bft)
26.10.2014 23:10 5,7 C 93 % 1026,9 hPa 0,0 l/m 1,1 km/h (1 Bft) S 180 4,7 C 5,1 C 2,6 km/h (1 Bft)
26.10.2014 23:15 5,1 C 93 % 1026,9 hPa 0,0 l/m 1,1 km/h (1 Bft) W 270 4,1 C 5,2 C 0,0 km/h (0 Bft)
26.10.2014 23:20 5,1 C 93 % 1026,8 hPa 0,0 l/m 0,5 km/h (0 Bft) NW 315 4,1 C 5,1 C 0,0 km/h (0 Bft)
26.10.2014 23:25 5,3 C 93 % 1026,8 hPa 0,0 l/m 0,0 km/h (0 Bft) NO 45 4,3 C 5,3 C 0,0 km/h (0 Bft)
26.10.2014 23:30 5,3 C 93 % 1026,8 hPa 0,0 l/m 0,2 km/h (0 Bft) NW 315 4,3 C 5,3 C 0,0 km/h (0 Bft)
26.10.2014 23:35 5,1 C 93 % 1026,8 hPa 0,0 l/m 0,2 km/h (0 Bft) NW 315 4,1 C 5,1 C 0,0 km/h (0 Bft)
26.10.2014 23:40 5,1 C 93 % 1026,8 hPa 0,0 l/m 0,0 km/h (0 Bft) NW 315 4,1 C 5,0 C 0,0 km/h (0 Bft)
26.10.2014 23:45 5,1 C 93 % 1026,8 hPa 0,0 l/m 0,0 km/h (0 Bft) NW 315 4,1 C 4,9 C 0,0 km/h (0 Bft)
26.10.2014 23:50 5,1 C 93 % 1026,8 hPa 0,0 l/m 0,0 km/h (0 Bft) NW 315 4,1 C 4,9 C 0,0 km/h (0 Bft)
26.10.2014 23:55 5,1 C 93 % 1026,8 hPa 0,0 l/m 0,0 km/h (0 Bft) NW 315 4,1 C 4,8 C 0,0 km/h (0 Bft)
_ Min-Zeit 19:55 14:55 00:35 - 23:55 - - 19:40 19:40 23:55
Minimum _ 3,4 C 58 % 1024,7 hPa - 0,0 km/h (0 Bft) - - 1,9 C 2,9 C 0,0 km/h (0 Bft)
_ Max-Zeit 14:25 08:00 20:35 23:55 12:30 - - 11:05 13:40 13:53
Maximum _ 14,6 C 97 % 1028,1 hPa 0,0 l/m 4,7 km/h
N-NO (1 Bft)
- - 10,2 C 18,0 C 11,1 km/h
O-SO (2 Bft)
Durchschnitt _ 7,4 C 89 % 1026,6 hPa #0,0 l/m 0,8 km/h (0 Bft) O-NO - 5,6 C 7,8 C 1,3 km/h (1 Bft)